WetterOnline ( https://www.wetteronline.de )

Wetter aktuell Schönburg

Aktuelles Wetter: Osterfeld (246m)

6-stündlich | Neueste Meldungen
Ortszeit Temperatur Wetter
Sa, 19.06. 8:00 23.6° C leicht bewölkt
Sa, 19.06. 2:00 22.0° C wolkenlos
Fr, 18.06. 20:00 28.7° C wolkenlos
Fr, 18.06. 14:00 31.4° C wolkenlos
Fr, 18.06. 8:00 23.6° C wolkenlos
Fr, 18.06. 2:00 20.8° C wolkenlos
Do, 17.06. 20:00 27.3° C wolkenlos
Do, 17.06. 14:00 30.4° C wolkenlos
Ortszeit Temperatur Wetter
Sa, 19.06. 12:00 28.0° C wolkenlos
Sa, 19.06. 11:50 28.0° C wolkenlos
Sa, 19.06. 11:40 27.9° C wolkenlos
Sa, 19.06. 11:30 27.5° C wolkenlos
Sa, 19.06. 11:20 27.5° C wolkenlos
Sa, 19.06. 11:10 28.0° C fast wolkenlos
Sa, 19.06. 11:00 27.5° C leicht bewölkt
Sa, 19.06. 10:30 27.6° C fast wolkenlos
Sa, 19.06. 10:00 26.8° C fast wolkenlos
Sa, 19.06. 9:30 26.3° C wolkig
Sa, 19.06. 9:00 25.9° C leicht bewölkt
Sa, 19.06. 8:30 24.4° C fast wolkenlos
Ortszeit Relative Feuchte Sichtweite
Sa, 19.06. 8:00 62% 11 km
Sa, 19.06. 2:00 68% 11 km
Fr, 18.06. 20:00 41% 11 km
Fr, 18.06. 14:00 38% 11 km
Fr, 18.06. 8:00 63% 11 km
Fr, 18.06. 2:00 65% 11 km
Do, 17.06. 20:00 49% 11 km
Do, 17.06. 14:00 38% 11 km
Ortszeit Relative Feuchte Sichtweite
Sa, 19.06. 12:00 57% 11 km
Sa, 19.06. 11:50 57% -
Sa, 19.06. 11:40 59% -
Sa, 19.06. 11:30 58% 11 km
Sa, 19.06. 11:20 58% -
Sa, 19.06. 11:10 60% -
Sa, 19.06. 11:00 56% 11 km
Sa, 19.06. 10:30 57% 6 km
Sa, 19.06. 10:00 54% 11 km
Sa, 19.06. 9:30 55% 11 km
Sa, 19.06. 9:00 57% 11 km
Sa, 19.06. 8:30 64% 11 km
Ortszeit Niederschlagsmenge Niederschlagsart
Sa, 19.06. 8:00 0.0 l/m2 in 12 Std. -
Sa, 19.06. 2:00 0.0 l/m2 in 6 Std. -
Fr, 18.06. 20:00 0.0 l/m2 in 12 Std. -
Fr, 18.06. 14:00 0.0 l/m2 in 6 Std. -
Fr, 18.06. 8:00 0.0 l/m2 in 12 Std. -
Fr, 18.06. 2:00 0.0 l/m2 in 6 Std. -
Do, 17.06. 20:00 0.0 l/m2 in 12 Std. -
Do, 17.06. 14:00 0.0 l/m2 in 6 Std. -
Ortszeit Niederschlagsmenge Niederschlagsart
Sa, 19.06. 12:00 0.0 l/m2 in 1 Std. -
Sa, 19.06. 11:50 keine Meldung -
Sa, 19.06. 11:40 keine Meldung -
Sa, 19.06. 11:30 0.0 l/m2 in 1 Std. -
Sa, 19.06. 11:20 keine Meldung -
Sa, 19.06. 11:10 keine Meldung -
Sa, 19.06. 11:00 0.0 l/m2 in 1 Std. -
Sa, 19.06. 10:30 0.0 l/m2 in 1 Std. -
Sa, 19.06. 10:00 0.0 l/m2 in 1 Std. -
Sa, 19.06. 9:30 0.0 l/m2 in 1 Std. -
Sa, 19.06. 9:00 0.0 l/m2 in 1 Std. -
Sa, 19.06. 8:30 0.0 l/m2 in 1 Std. -
Ortszeit Stärke Spitze Richtung
km/h Bft. km/h Grad Sektor
Sa, 19.06. 8:00 7 2 11 230° SW
Sa, 19.06. 2:00 7 2 14 170° S
Fr, 18.06. 20:00 11 2 25 90° O
Fr, 18.06. 14:00 7 2 22 110° O
Fr, 18.06. 8:00 7 2 18 70° O
Fr, 18.06. 2:00 7 2 29 220° SW
Do, 17.06. 20:00 13 3 24 90° O
Do, 17.06. 14:00 11 2 29 100° O
Ortszeit Stärke Spitze Richtung
km/h Bft. km/h Grad Sektor
Sa, 19.06. 12:00 15 3 28 270° W
Sa, 19.06. 11:50 15 3 - 270° W
Sa, 19.06. 11:40 14 3 - 290° W
Sa, 19.06. 11:30 20 4 28 280° W
Sa, 19.06. 11:20 20 4 - 280° W
Sa, 19.06. 11:10 14 3 - 280° W
Sa, 19.06. 11:00 17 3 30 280° W
Sa, 19.06. 10:30 9 2 24 260° W
Sa, 19.06. 10:00 7 2 22 260° W
Sa, 19.06. 9:30 11 2 22 270° W
Sa, 19.06. 9:00 6 1 13 240° SW
Sa, 19.06. 8:30 6 1 9 230° SW
Ortszeit Untergrenze Bedeckung Gattung
total tief tief mittel hoch
Sa, 19.06. 8:00 8100 m 3/8 0/8 - - -
Sa, 19.06. 2:00 - 0/8 0/8 - - -
Fr, 18.06. 20:00 - 0/8 0/8 - - -
Fr, 18.06. 14:00 - 0/8 0/8 - - -
Fr, 18.06. 8:00 - 0/8 0/8 - - -
Fr, 18.06. 2:00 - 0/8 0/8 - - -
Do, 17.06. 20:00 - 0/8 0/8 - - -
Do, 17.06. 14:00 - 0/8 0/8 - - -
Ortszeit Bedeckungsgrad in Achtel und Wolkenuntergrenze
Sa, 19.06. 12:00 keine Wolken
Sa, 19.06. 11:50 keine Wolken
Sa, 19.06. 11:40 keine Wolken
Sa, 19.06. 11:30 keine Wolken
Sa, 19.06. 11:20 keine Wolken
Sa, 19.06. 11:10 1(3900m)
Sa, 19.06. 11:00 1(3900m) 1(10500m)
Sa, 19.06. 10:30 1(12000m)
Sa, 19.06. 10:00 1(9000m)
Sa, 19.06. 9:30 6(7500m) 7(8400m)
Sa, 19.06. 9:00 5(8400m)
Sa, 19.06. 8:30 1(8700m)
Ortszeit Luftdruck NN (hPa) Tendenz (hPa in 3 Std.)
Sa, 19.06. 8:00 1014 + 0,5
Sa, 19.06. 2:00 1013 + 0,1
Fr, 18.06. 20:00 1012 - 0,2
Fr, 18.06. 14:00 1013 - 0,4
Fr, 18.06. 8:00 1014 + 0,5
Fr, 18.06. 2:00 1014 + 0,1
Do, 17.06. 20:00 1013 - 0,5
Do, 17.06. 14:00 1014 - 0,6
Ortszeit Luftdruck NN (hPa) Tendenz (hPa in 3 Std.)
Sa, 19.06. 12:00 1014 + 0,8
Sa, 19.06. 11:50 1014 keine Meldung
Sa, 19.06. 11:40 1014 keine Meldung
Sa, 19.06. 11:30 1014 + 0,7
Sa, 19.06. 11:20 1014 keine Meldung
Sa, 19.06. 11:10 1014 keine Meldung
Sa, 19.06. 11:00 1014 + 1,0
Sa, 19.06. 10:30 1014 + 0,9
Sa, 19.06. 10:00 1014 + 0,9
Sa, 19.06. 9:30 1014 + 1,1
Sa, 19.06. 9:00 1014 + 1,0
Sa, 19.06. 8:30 1014 + 1,1
Ortszeit Schneehöhe (cm)
Sa, 19.06. 8:00 -
Sa, 19.06. 2:00 -
Fr, 18.06. 20:00 -
Fr, 18.06. 14:00 -
Fr, 18.06. 8:00 -
Fr, 18.06. 2:00 -
Do, 17.06. 20:00 -
Do, 17.06. 14:00 -
Ortszeit Schneehöhe (cm)
Sa, 19.06. 12:00 -
Sa, 19.06. 11:50 -
Sa, 19.06. 11:40 -
Sa, 19.06. 11:30 -
Sa, 19.06. 11:20 -
Sa, 19.06. 11:10 -
Sa, 19.06. 11:00 -
Sa, 19.06. 10:30 -
Sa, 19.06. 10:00 -
Sa, 19.06. 9:30 -
Sa, 19.06. 9:00 -
Sa, 19.06. 8:30 -
Link zu dieser Seite / Seite empfehlen

Das Wetter in ...